Home   Weather   Plymouth   Past weeks
Flag for United Kingdom

Past Weather in Plymouth, England, United Kingdom — Yesterday and Last 2 Weeks

Now
51 °F

Cool.


Feels Like: 48 °F
Forecast: 53 / 47 °F
Wind: 8 mph from Southwest

Location: Plymouth

Current Time: Mar 20, 2019 at 1:35:04 pm

Latest Report: Mar 20, 2019 at 12:00 pm


Visibility: 11 mi

Pressure: 30.54 "Hg

Humidity: 90%

Dew Point: 48 °F

Location of PlymouthLocation

Past Weather in Plymouth — Graph

°F

Plymouth Temperature Yesterday

Maximum temperature yesterday: 58 °F (at 11:00 am)
Minimum temperature yesterday: 45 °F (at 1:00 am)
Average temperature yesterday: 50 °F

High & Low Weather Summary for the Past Weeks

 TemperatureHumidityPressure
High58 °F (Mar 19, 11:00 am)100% (Mar 8, 6:00 pm)30.54 "Hg (Mar 8, 6:00 pm)
Low38 °F (Mar 11, 1:00 am)53% (Mar 10, 1:00 pm)29.06 "Hg (Mar 6, 1:00 pm)
Average48 °F86%29.91 "Hg
* Reported Mar 5 12:00 pm — Mar 20 12:00 pm, Plymouth. Weather by CustomWeather, © 2019

Note: Actual official high and low records may vary slightly from our data, if they occured in-between our weather recording intervals... More about our weather records

Advertising

Plymouth Weather History for the Previous 24 Hours

Scroll right to see more
 ConditionsComfort  
Time TempWeatherWind HumidityBarometerVisibility
12:00 pm
Wed, Mar 20
51 °FCool.8 mph90%30.54 "Hg11 mi
11:00 am49 °FCool.3 mph93%30.54 "Hg18 mi
10:00 am49 °FFog.6 mph96%30.54 "Hg12 mi
9:00 am48 °FCool.6 mph97%30.52 "Hg19 mi
8:00 am47 °FCool.6 mph98%30.50 "Hg14 mi
7:00 am47 °FCool.5 mph97%30.49 "Hg22 mi
6:00 am48 °FCool.2 mph98%30.47 "Hg12 mi
5:00 am49 °FCool.3 mph99%30.46 "Hg9 mi
4:00 am49 °FFog.7 mph99%30.45 "Hg2 mi
3:00 am49 °FCool.8 mph99%30.45 "Hg16 mi
2:00 am49 °FCool.8 mph99%30.46 "Hg11 mi
1:00 am49 °FCool.9 mph99%30.47 "Hg1 mi
12:00 am49 °FCool.7 mph98%30.47 "Hg14 mi
11:00 pm
Tue, Mar 19
49 °FCool.9 mph98%30.46 "Hg5 mi
10:00 pm49 °FFog.9 mph96%30.46 "Hg2 mi
9:00 pm49 °FCool.8 mph94%30.44 "Hg10 mi
8:00 pm49 °FCool.8 mph92%30.43 "Hg9 mi
7:00 pm50 °FCool.13 mph90%30.44 "Hg19 mi
6:00 pm50 °FCool.13 mph88%30.41 "Hg14 mi
5:00 pm51 °FCool.13 mph80%30.39 "Hg25 mi
4:00 pm56 °FCool.12 mph70%30.38 "Hg22 mi
3:00 pm57 °FCool.10 mph74%30.38 "Hg19 mi
2:00 pm56 °FCool.10 mph72%30.39 "Hg14 mi
1:00 pm57 °FCool.12 mph75%30.39 "Hg10 mi
Weather by CustomWeather, © 2019

See weather overview